[[{"header":{"parameterUnit":"m.s-1","parameterCategory":1,"la1":30.2991,"la2":30.254,"lo1":-89.0895,"lo2":-89.0444,"dy":0.0017,"dx":0.0017,"nx":28,"ny":28,"refTime":"2024-05-02T21:00:00:Z","depth":0,"parameterNumber":2,"parameterNumberName":"U-component_of_WINDS"},"data":[0,0,0,0,0,0,0,0,0,0,0,0,0,0,0,0,0,0,0,0,0,0,0,0,0,0,0,0,0,0,0,0,0,0,0,0,0,0,0,0,0,0,0,0,0,0,0,0,0,0,0,0,0,0,0,0,0,0,-4.1993,-4.1994,0,-4.2091,-4.2092,-4.2093,-4.2052,-4.2049,-4.2047,-4.2045,-4.2146,-4.2151,-4.2156,0,0,0,0,0,0,0,0,0,0,0,0,0,-4.1771,-4.1776,-4.1993,-4.1994,-4.1995,-4.2091,-4.2092,-4.2093,-4.2052,-4.2049,-4.2046,-4.2044,-4.2144,-4.215,-4.2156,0,0,0,0,0,0,0,0,0,0,0,0,0,-4.1868,-4.1777,-4.1992,-4.1986,-4.1986,-4.209,-4.2092,-4.2094,-4.2053,-4.2049,-4.2046,-4.2042,-4.2142,-4.215,-4.2157,-4.2273,0,0,-4.2179,-4.2182,0,0,0,0,0,0,0,0,-4.1863,-4.1876,-4.1986,-4.1987,-4.1987,-4.2055,-4.2051,-4.2154,-4.2054,-4.2028,-4.2045,-4.2041,-4.2119,-4.2128,-4.2154,-4.2278,-4.2282,-4.218,-4.2184,-4.2188,-4.219,0,0,0,0,0,0,0,-4.1856,-4.1872,-4.2031,-4.1987,-4.1988,-4.1979,-4.1989,-4.207,-4.2092,-4.203,-4.2027,-4.2039,-4.2118,-4.2147,-4.2156,-4.2284,-4.218,-4.2186,-4.2191,-4.2194,-4.2509,-4.2512,0,0,0,0,0,0,-4.1849,-4.1867,-4.2028,-4.2034,-4.1915,-4.1986,-4.1997,-4.2037,-4.2091,-4.2096,-4.2042,-4.2037,-4.2136,-4.2148,-4.2159,-4.2299,-4.2187,-4.2194,-4.2199,-4.2505,-4.2509,-4.2514,0,0,0,0,0,0,-4.1845,-4.1864,-4.2024,-4.195,-4.197,-4.1993,-4.2039,-4.2041,-4.2069,-4.21,-4.2104,-4.2067,-4.2134,-4.2149,-4.2245,-4.2302,-4.2198,-4.2204,-4.25,-4.2506,-4.2512,-4.2579,0,0,0,0,0,0,-4.1838,-4.1863,-4.1906,-4.1951,-4.1974,-4.2108,-4.2042,-4.2045,-4.2082,-4.2076,-4.2125,-4.2129,-4.2132,-4.2235,-4.2253,-4.231,-4.221,-4.2495,-4.2503,-4.251,-4.2572,-4.2587,-4.2599,0,0,0,0,0,-4.1831,-4.1922,-4.1909,-4.1929,-4.2029,-4.2111,-4.2124,-4.2126,-4.2087,-4.2131,-4.2151,-4.2128,-4.2293,-4.2245,-4.2265,-4.2325,-4.2491,-4.25,-4.2509,-4.2566,-4.2584,-4.2599,0,0,0,0,0,0,-4.1883,-4.1927,-4.1914,-4.2022,-4.2063,-4.2104,-4.216,-4.2145,-4.2198,-4.219,-4.219,-4.2202,-4.2301,-4.2323,-4.2268,-4.2441,-4.2386,-4.24,-4.2423,-4.244,-4.2454,-4.2446,-4.2216,0,0,0,0,0,-4.1907,-4.197,-4.2005,-4.2097,-4.2119,-4.2136,-4.2172,-4.217,-4.2213,-4.223,-4.2257,-4.23,-4.2362,-4.2402,-4.2461,-4.2576,-4.2586,-4.2628,-4.2641,-4.2652,-4.2663,-4.2726,-4.2745,-4.2543,-4.2543,-4.2543,0,0,-4.1957,-4.1989,-4.2029,-4.2109,-4.214,-4.2206,-4.2151,-4.2223,-4.2272,-4.2241,-4.2333,-4.2355,-4.2403,-4.2509,-4.2557,-4.2531,-4.2722,-4.2664,-4.2672,-4.2677,-4.2737,-4.2756,-4.2773,-4.2549,-4.2548,-4.2547,0,0,-4.2082,-4.2113,-4.2193,-4.2226,-4.2275,-4.2286,-4.2306,-4.235,-4.2363,-4.2456,-4.2435,-4.2493,-4.2599,-4.2635,-4.2666,-4.2807,-4.2787,-4.2826,-4.2897,-4.2958,-4.2974,-4.2988,-4.3038,-4.3056,-4.2837,-4.2838,-4.2838,0,-4.2139,-4.2236,-4.2236,-4.231,-4.2346,-4.2322,-4.2403,-4.2436,-4.2501,-4.2527,-4.2496,-4.263,-4.2661,-4.2775,-4.2809,-4.2836,-4.2858,-4.282,-4.2972,-4.2986,-4.2999,-4.3047,-4.3066,-4.2842,-4.2841,-4.2841,-4.2841,0,-4.2303,-4.2371,-4.243,-4.2494,-4.2537,-4.2614,-4.2626,-4.267,-4.2665,-4.2679,-4.2775,-4.2811,-4.2876,-4.2904,-4.2899,-4.3018,-4.3,-4.2971,-4.2916,-4.3023,-4.3067,-4.3086,-4.2848,-4.2847,-4.2845,-4.2844,0,0,-4.2462,-4.2526,-4.2548,-4.2576,-4.263,-4.2682,-4.2759,-4.2823,-4.2861,-4.2908,-4.2972,-4.3063,-4.3037,-4.3073,-4.3073,-4.3127,-4.3236,-4.3091,-4.3092,-4.3116,-4.3369,-4.339,-4.3411,-4.3224,-4.3227,-4.323,-4.3365,0,-4.259,-4.2724,-4.2727,-4.285,-4.2913,-4.2892,-4.2959,-4.2999,-4.3016,-4.3072,-4.309,-4.3155,-4.3116,-4.3138,-4.319,-4.3211,-4.3286,-4.3202,-4.3284,-4.3287,-4.3271,-4.3434,-4.3456,-4.3581,-4.3382,-4.3385,-4.3387,0,-4.2758,-4.281,-4.2939,-4.2983,-4.301,-4.307,-4.3129,-4.3184,-4.323,-4.3238,-4.3279,-4.3271,-4.335,-4.3294,-4.3403,-4.3345,-4.3379,-4.3395,-4.34,-4.3407,-4.3343,-4.3445,-4.3621,-4.364,-4.3415,-4.3413,-4.3411,0,-4.286,-4.2963,-4.3053,-4.3079,-4.3133,-4.3176,-4.3201,-4.3243,-4.3282,-4.3334,-4.3359,-4.3421,-4.3454,-4.3502,-4.3511,-4.3469,-4.3621,-4.3565,-4.363,-4.363,-4.3662,-4.3659,-4.3845,-4.3685,-4.3685,-4.3685,-4.3684,0,-4.3003,-4.3083,-4.31,-4.3156,-4.3245,-4.3248,-4.3336,-4.3358,-4.3396,-4.3456,-4.3442,-4.3499,-4.3508,-4.3567,-4.3575,-4.3664,-4.3679,-4.3688,-4.3689,-4.3689,-4.3688,-4.371,-4.3702,-4.369,-4.3689,-4.3688,-4.3687,0,-4.3132,-4.3147,-4.3244,-4.3288,-4.3301,-4.3365,-4.3402,-4.3456,-4.3471,-4.3548,-4.3566,-4.359,-4.3659,-4.3673,-4.3755,-4.376,-4.3866,-4.3859,-4.3851,-4.385,-4.3914,-4.3907,-4.412,-4.4148,-4.397,-4.3972,-4.3974,0,-4.3222,-4.3282,-4.3333,-4.3372,-4.3399,-4.3462,-4.3501,-4.3508,-4.355,-4.3607,-4.3654,-4.3721,-4.3775,-4.3887,-4.3912,-4.3975,-4.3969,-4.4039,-4.3978,-4.3976,-4.3969,-4.3965,-4.3971,-4.405,-4.4052,-4.4054,-4.4055,0,-4.3379,-4.3384,-4.3441,-4.3501,-4.3549,-4.3596,-4.3642,-4.3675,-4.3688,-4.3736,-4.3806,-4.3848,-4.3932,-4.3999,-4.4062,-4.4088,-4.4074,-4.4074,-4.4093,-4.4093,-4.4085,-4.409,-4.3882,-4.4069,-4.4068,-4.4067,-4.4066,-4.4065,-4.3491,-4.3544,-4.3588,-4.3652,-4.3687,-4.373,-4.3783,-4.3805,-4.3864,-4.3932,-4.3933,-4.401,-4.4055,-4.4138,-4.4168,-4.4229,-4.4207,-4.4233,-4.424,-4.4246,-4.4252,-4.4076,-4.4241,-4.424,-4.424,-4.424,-4.4239,0,-4.3647,-4.3675,-4.3734,-4.3798,-4.3849,-4.3832,-4.3881,-4.3925,-4.3993,-4.4036,-4.409,-4.4171,-4.4237,-4.4268,-4.4333,-4.4375,-4.4371,-4.4392,-4.4389,-4.4395,-4.4268,-4.4246,-4.4395,-4.4395,-4.4395,-4.4395,-4.4395,-4.4395,-4.3734,-4.3823,-4.3834,-4.394,-4.3967,-4.4042,-4.4072,-4.4112,-4.4147,-4.4238,-4.4292,-4.4312,-4.4351,-4.4418,-4.4478,-4.4486,-4.451,-4.4534,-4.4539,-4.442,-4.4404,-4.4389,-4.4367,-4.454,-4.454,-4.4661,-4.4662,-4.4663]},{"header":{"parameterUnit":"m.s-1","parameterCategory":1,"la1":30.2991,"la2":30.254,"lo1":-89.0895,"lo2":-89.0444,"dy":0.0017,"dx":0.0017,"nx":28,"ny":28,"refTime":"2024-05-02T21:00:00:Z","depth":0,"parameterNumber":3,"parameterNumberName":"V-component_of_WINDS"},"data":[0,0,0,0,0,0,0,0,0,0,0,0,0,0,0,0,0,0,0,0,0,0,0,0,0,0,0,0,0,0,0,0,0,0,0,0,0,0,0,0,0,0,0,0,0,0,0,0,0,0,0,0,0,0,0,0,0,0,4.8632,4.8633,0,4.8667,4.8667,4.8667,4.8631,4.863,4.8628,4.8627,4.8658,4.866,4.8662,0,0,0,0,0,0,0,0,0,0,0,0,0,4.8532,4.8534,4.8632,4.8633,4.8633,4.8667,4.8667,4.8667,4.8631,4.863,4.8628,4.8626,4.8657,4.866,4.8663,0,0,0,0,0,0,0,0,0,0,0,0,0,4.8572,4.8535,4.8632,4.8619,4.8618,4.8666,4.8667,4.8668,4.8632,4.863,4.8628,4.8626,4.8657,4.866,4.8663,4.8724,0,0,4.8673,4.8674,0,0,0,0,0,0,0,0,4.8569,4.8575,4.8621,4.862,4.8619,4.8643,4.8643,4.8686,4.8632,4.8627,4.8627,4.8625,4.8654,4.8658,4.8668,4.8726,4.8727,4.8673,4.8675,4.8676,4.8677,0,0,0,0,0,0,0,4.8567,4.8574,4.8646,4.8621,4.8621,4.8611,4.8614,4.8651,4.8652,4.8627,4.8624,4.8629,4.8654,4.8666,4.8669,4.8727,4.8673,4.8676,4.8678,4.8679,4.8836,4.8838,0,0,0,0,0,0,4.8566,4.8572,4.8645,4.8647,4.8589,4.8614,4.8618,4.8637,4.8651,4.8651,4.8631,4.8627,4.8661,4.8665,4.867,4.8742,4.8676,4.8679,4.8681,4.8834,4.8837,4.8839,0,0,0,0,0,0,4.8564,4.8573,4.8643,4.8609,4.8617,4.8618,4.864,4.8639,4.8651,4.8654,4.8654,4.8643,4.866,4.8665,4.8711,4.8743,4.8681,4.8683,4.8831,4.8835,4.8838,4.8888,0,0,0,0,0,0,4.8561,4.8572,4.8596,4.8609,4.8619,4.8685,4.8642,4.8641,4.8657,4.8653,4.8666,4.8666,4.8658,4.8707,4.8714,4.8746,4.8686,4.8828,4.8833,4.8837,4.8883,4.8893,4.89,0,0,0,0,0,4.8558,4.8608,4.8598,4.8607,4.8649,4.8687,4.8692,4.8684,4.866,4.8683,4.8685,4.8665,4.8739,4.8712,4.872,4.8753,4.8826,4.8832,4.8837,4.888,4.8891,4.89,0,0,0,0,0,0,4.8597,4.861,4.8598,4.8655,4.867,4.8681,4.871,4.8696,4.8718,4.8713,4.87,4.8704,4.8752,4.8757,4.8727,4.8813,4.8778,4.8785,4.8808,4.8819,4.8827,4.8824,4.8689,0,0,0,0,0,4.8613,4.8644,4.8652,4.8701,4.871,4.8709,4.8725,4.8718,4.8733,4.8739,4.8744,4.8759,4.8785,4.8802,4.8826,4.8884,4.8886,4.8911,4.892,4.8927,4.8933,4.8963,4.8975,4.8856,4.8856,4.8856,0,0,4.8644,4.8655,4.8675,4.8709,4.8721,4.8752,4.8715,4.8749,4.8772,4.8743,4.8787,4.8792,4.8807,4.8859,4.8882,4.8865,4.8966,4.8933,4.8939,4.8941,4.897,4.8981,4.8991,4.8859,4.8859,4.8858,0,0,4.8718,4.873,4.8772,4.8784,4.8802,4.8802,4.8812,4.8825,4.8828,4.8872,4.8851,4.8877,4.8923,4.8935,4.8947,4.9026,4.9008,4.9034,4.9078,4.9109,4.9118,4.9126,4.9154,4.9164,4.904,4.9041,4.9041,0,4.8755,4.8803,4.8795,4.8832,4.8847,4.8824,4.8866,4.8878,4.8903,4.8913,4.8894,4.8951,4.8959,4.9014,4.9034,4.9044,4.9055,4.9032,4.9118,4.9126,4.9133,4.916,4.917,4.9044,4.9043,4.9043,4.9043,0,4.8847,4.888,4.8912,4.8938,4.8957,4.8996,4.8993,4.9013,4.9004,4.9005,4.905,4.906,4.9086,4.9098,4.9089,4.9152,4.914,4.912,4.9084,4.9148,4.9172,4.9182,4.9048,4.9047,4.9046,4.9045,0,0,4.8945,4.8968,4.8979,4.8991,4.901,4.9035,4.9072,4.9099,4.9117,4.9134,4.9165,4.9205,4.9186,4.9199,4.9192,4.9218,4.928,4.9194,4.9194,4.9209,4.9349,4.9364,4.9376,4.9269,4.9271,4.9272,4.9348,0,4.9019,4.9086,4.9081,4.9144,4.9174,4.9154,4.9186,4.9201,4.9203,4.9228,4.923,4.9258,4.9231,4.9239,4.9265,4.9267,4.9308,4.9262,4.9296,4.9297,4.9292,4.9389,4.9405,4.9475,4.9357,4.9359,4.936,0,4.9114,4.9137,4.9204,4.9219,4.9231,4.9261,4.9285,4.931,4.9326,4.9325,4.9341,4.9329,4.9366,4.9331,4.9381,4.935,4.9364,4.9367,4.937,4.9372,4.9332,4.9393,4.9498,4.9508,4.9375,4.9374,4.9373,0,4.9179,4.9226,4.9272,4.9283,4.9302,4.9323,4.9331,4.9345,4.9362,4.9383,4.9393,4.9418,4.9431,4.945,4.9444,4.9419,4.9496,4.946,4.9495,4.9496,4.9512,4.9511,4.9619,4.9522,4.9522,4.9522,4.9521,0,4.9262,4.9303,4.9302,4.933,4.9376,4.9369,4.9413,4.9419,4.9432,4.946,4.9443,4.947,4.9461,4.9487,4.9483,4.9525,4.9531,4.9531,4.9529,4.9532,4.9532,4.954,4.9535,4.9524,4.9524,4.9523,4.9523,0,4.9341,4.9342,4.9391,4.9405,4.941,4.9443,4.9454,4.948,4.9481,4.9517,4.9525,4.9526,4.9556,4.9553,4.9585,4.9582,4.9635,4.9627,4.963,4.9628,4.9663,4.966,4.978,4.9796,4.9689,4.969,4.9691,0,4.9394,4.9426,4.9444,4.9462,4.9472,4.9502,4.9519,4.9514,4.9532,4.9553,4.9576,4.9605,4.9627,4.9675,4.9678,4.9703,4.9696,4.9736,4.9699,4.9701,4.9695,4.9693,4.9696,4.9743,4.9744,4.9745,4.9746,0,4.9487,4.9486,4.9513,4.954,4.9561,4.9582,4.96,4.9616,4.9612,4.9634,4.9664,4.9682,4.9716,4.9744,4.9768,4.9775,4.976,4.9758,4.9768,4.977,4.977,4.977,4.9649,4.9755,4.9754,4.9754,4.9753,4.9753,4.9554,4.9581,4.9599,4.9629,4.9642,4.966,4.9686,4.9691,4.9717,4.9745,4.974,4.9775,4.9789,4.982,4.983,4.9856,4.9841,4.9854,4.9858,4.9861,4.9865,4.9767,4.986,4.986,4.9859,4.9859,4.9859,0,4.9646,4.9656,4.9684,4.9712,4.9735,4.9721,4.9741,4.9761,4.9792,4.9808,4.9831,4.9866,4.9893,4.9899,4.9925,4.9945,4.9938,4.9952,4.995,4.9951,4.9877,4.9866,4.9956,4.9956,4.9956,4.9956,4.9956,4.9956,4.9696,4.9742,4.9743,4.9795,4.9804,4.9839,4.9852,4.9868,4.9881,4.9921,4.9944,4.9949,4.996,4.9987,5.0011,5.0012,5.0022,5.0038,5.0036,4.9966,4.9957,4.9947,4.9937,5.004,5.004,5.0108,5.0108,5.0109]}]]